Location: *
(35.2348°S, 91.3916°E)
Time: 02:21:51
(UTC+00:00)

Cosmos 2263 Rocket - Pass Details

Date: 23 October 2019
Orbit: 825 x 847 km, 71.0° (Epoch: 14 November)

Event Time Altitude Azimuth Distance (km) Brightness Sun altitude
Exits shadow 20:52:05 65° 299° (WNW) 920 2.0 -24.6°
Maximum altitude 20:52:48 74° 248° (WSW) 874 2.1 -24.5°
Drops below altitude 10° 20:58:28 10° 163° (SSE) 2,471 5.3 -23.6°
Sets 21:00:57 0° 160° (SSE) 3,415 6.2 -23.2°
